This is the latest recevied weather packets stored in our database for station/object EFOU. If no packets are shown the sender has not sent any weather packets the latest 10 day(s).
| Time | Temp. | Humidity | Pressure | Rain* | Wind** | Luminosity | Snow |
|---|---|---|---|---|---|---|---|
| 1778045238 | 2.78° C | 92% | 1002.7 hPa | - | - | - | - |
| 1778044038 | 2.78° C | 94% | 1002.5 hPa | - | - | - | - |
| 1778042837 | 2.22° C | 92% | 1002.3 hPa | - | - | - | - |
| 1778041637 | 2.22° C | 93% | 1002.1 hPa | - | - | - | - |
| 1778040437 | 2.22° C | 93% | 1001.9 hPa | - | - | - | - |
| 1778039237 | 2.22° C | 92% | 1001.7 hPa | - | - | - | - |
| 1778038037 | 2.22° C | 92% | 1001.6 hPa | - | - | - | - |
| 1778036837 | 2.78° C | 92% | 1001.4 hPa | - | - | - | - |
| 1778035637 | 2.78° C | 90% | 1001.3 hPa | - | - | - | - |
| 1778034437 | 2.78° C | 89% | 1001.1 hPa | - | - | - | - |
| 1778033237 | 2.78° C | 90% | 1001 hPa | - | - | - | - |
| 1778032037 | 2.78° C | 90% | 1000.9 hPa | - | - | - | - |
| 1778030837 | 3.33° C | 89% | 1000.8 hPa | - | - | - | - |
| 1778029637 | 3.33° C | 88% | 1000.7 hPa | - | - | - | - |
| 1778028436 | 2.78° C | 89% | 1000.5 hPa | - | - | - | - |
| 1778027237 | 2.78° C | 90% | 1000.5 hPa | - | - | - | - |
| 1778026036 | 2.78° C | 90% | 1000.4 hPa | - | - | - | - |
| 1778024837 | 2.78° C | 90% | 1000.3 hPa | - | - | - | - |
| 1778023636 | 3.33° C | 90% | 1000.2 hPa | - | - | - | - |
| 1778022437 | 2.78° C | 92% | 1000.3 hPa | - | - | - | - |
| 1778021236 | 3.33° C | 88% | 1000.2 hPa | - | - | - | - |
| 1778020036 | 3.89° C | 83% | 1000.2 hPa | - | - | - | - |
| 1778018836 | 3.89° C | 84% | 1000.2 hPa | - | - | - | - |
| 1778017636 | 3.33° C | 84% | 1000.1 hPa | - | - | - | - |
| 1778016436 | 3.33° C | 84% | 1000.1 hPa | - | - | - | - |
* Rain since midnight (hover to see other rain measurements)
** Current wind speed in m/s (hover to see current wind gust speed)